Onweer radar Meer informatie blitzortung!


Regen radar Meer informatie rain snow radar


Bezoek onze andere website:

Template documentation
and downloads

And another site



15 daagse weersverwachting Dordrecht (NL)

  • Overzicht
  • Per uur
  • 15 dagen
  • Extra
  • Vergelijk
  • Kaarten
  • Dagkaart
  • Meer »
  • Info
  • Statistieken
  • Directe link
    Temp 6h Neerslag Wind  
 06:07     21:30    Daglengte: 15:23 Vandaag
02:00
15°
 
3
08:00
15°
 
4
14:00
19°
2.6 mm
4
20:00
17°
4.3 mm
3
 06:08     21:28    Daglengte: 15:20 Morgen
02:00
14°
 
2
08:00
14°
 
1
14:00
19°
 
3
20:00
18°
 
4
 06:10     21:26    Daglengte: 15:16 Dinsdag 03 Aug
02:00
12°
 
1
08:00
12°
 
1
14:00
20°
 
1
20:00
19°
 
4
Locatie info
Region: Zuid-Holland
Latitude: 51.8120°N
Longitude: 4.6565°E
3 masl
Postcode: 3311 JA
Temp/Neerslag /Baro Onweer/Dauwpunt
    Temp Baro 1h Neerslag Dauwpunt Wind UV Bewolking  
 06:07     21:30    Daglengte: 15:23 Vandaag
01:00
15°
1009.4 hPa
14%
14.2°
3
Windvlaag: 4.3 m/s
13%
02:00
15°
1009.1 hPa
13%
14.0°
3
Windvlaag: 5.2 m/s
24%
03:00
14°
1008.9 hPa
17%
13.7°
3
Windvlaag: 5.1 m/s
35%
04:00
14°
1008.6 hPa
14%
13.7°
3
Windvlaag: 4.9 m/s
13%
05:00
14°
1008.2 hPa
13%
13.6°
3
Windvlaag: 4.7 m/s
51%
06:00
14°
1008.3 hPa
13%
13.7°
3
Windvlaag: 4.4 m/s
58%
07:00
14°
1008.5 hPa
13%
13.8°
4
Windvlaag: 5.2 m/s
60%
08:00
15°
1008.5 hPa
15%
14.1°
4
Windvlaag: 5.6 m/s
69%
09:00
16°
1008.5 hPa
67%
14.7°
4
Windvlaag: 5.4 m/s
20%
10:00
16°
1008.7 hPa 0.3 mm
78%
14.8°
4
Windvlaag: 5.3 m/s
20%
11:00
17°
1009.1 hPa 0.4 mm
82%
15.2°
4
Windvlaag: 5.4 m/s
67%
12:00
18°
1009.2 hPa 0.4 mm
82%
15.3°
4
Windvlaag: 5.2 m/s
65%
13:00
18°
1009.2 hPa 0.5 mm
82%
15.2°
4
Windvlaag: 2.3 m/s
57% warningclass
14:00
19°
1009.2 hPa 0.9 mm
82%
14.4°
4
Windvlaag: 1.7 m/s
54%
15:00
19°
1009.5 hPa 1.1 mm
82%
12.4°
5
Windvlaag: -0.2 m/s
49%
16:00
18°
1009.6 hPa 1.0 mm
82%
12.0°
5
Windvlaag: -0.5 m/s
33%
17:00
18°
1009.5 hPa 1.1 mm
82%
11.8°
5
Windvlaag: -1.2 m/s
21%
18:00
18°
1009.8 hPa 1.1 mm
82%
12.0°
5
Windvlaag: -1.7 m/s
44%
19:00
18°
1009.8 hPa
78%
12.2°
4
Windvlaag: -3.9 m/s
52%
20:00
17°
1010.1 hPa
69%
12.5°
3
Windvlaag: -3.6 m/s
71%
21:00
16°
1010.3 hPa
64%
12.3°
3
Windvlaag: -1.9 m/s
18%
22:00
16°
1011.1 hPa
27%
12.2°
2
Windvlaag: -1.3 m/s
49%
23:00
15°
1011.4 hPa
16%
12.5°
2
Windvlaag: -0.9 m/s
70%
 06:08     21:28    Daglengte: 15:20 Morgen
00:00
15°
1011.6 hPa
14%
12.4°
2
Windvlaag: 0.3 m/s
60%
01:00
14°
1011.7 hPa
14%
12.3°
2
Windvlaag: 0.3 m/s
48%
02:00
14°
1011.7 hPa
19%
12.4°
2
Windvlaag: 0.3 m/s
52%
03:00
14°
1011.6 hPa
25%
12.4°
2
Windvlaag: 0.2 m/s
64%
04:00
13°
1011.7 hPa
25%
12.3°
2
Windvlaag: -0.1 m/s
41%
05:00
13°
1011.6 hPa
15%
11.9°
1
Windvlaag: 0.2 m/s
61%
06:00
13°
1012.0 hPa
15%
11.7°
1
Windvlaag: 0.5 m/s
14%
07:00
13°
1012.3 hPa
16%
11.7°
1
Windvlaag: 0.5 m/s
16%
08:00
14°
1012.6 hPa
15%
12.2°
1
Windvlaag: 0.6 m/s
18%
09:00
15°
1013.0 hPa
15%
11.6°
1
Windvlaag: 0.1 m/s
15%
10:00
16°
1013.2 hPa
14%
10.7°
2
Windvlaag: -0.6 m/s
21%
11:00
17°
1013.6 hPa
14%
10.0°
2
Windvlaag: 1.5 m/s
11%
12:00
18°
1013.8 hPa
14%
10.3°
2
Windvlaag: 3.4 m/s
10%
13:00
18°
1013.8 hPa
14%
10.0°
2
Windvlaag: 2.8 m/s
15%
14:00
19°
1013.8 hPa
16%
9.5°
3
Windvlaag: 1 m/s
35%
15:00
19°
1013.7 hPa
20%
9.7°
3
Windvlaag: -2.4 m/s
20%
16:00
19°
1013.6 hPa
19%
10.0°
4
Windvlaag: -3.2 m/s
22%
17:00
20°
1013.1 hPa
22%
10.4°
3
Windvlaag: -3.2 m/s
22%
18:00
19°
1013.0 hPa
21%
9.9°
4
Windvlaag: -3.3 m/s
13%
19:00
19°
1013.0 hPa
21%
8.4°
4
Windvlaag: -4 m/s
5%
20:00
18°
1013.1 hPa
21%
7.6°
4
Windvlaag: -4.1 m/s
19%
21:00
17°
1013.5 hPa
21%
7.9°
3
Windvlaag: -3.8 m/s
45%
22:00
15°
1013.9 hPa
21%
10.2°
2
Windvlaag: -2.1 m/s
26%
23:00
13°
1014.2 hPa
21%
9.9°
2
Windvlaag: -1.3 m/s
26%
 06:10     21:26    Daglengte: 15:16 Dinsdag 03 Aug
00:00
13°
1014.2 hPa
21%
9.6°
2
Windvlaag: -0.4 m/s
4%
01:00
12°
1014.3 hPa
21%
9.4°
2
Windvlaag: -0.2 m/s
17%
02:00
12°
1014.2 hPa
21%
9.1°
1
Windvlaag: -0.6 m/s
26%
03:00
11°
1014.0 hPa
21%
9.2°
1
Windvlaag: -0.6 m/s
39%
04:00
11°
1013.8 hPa
21%
9.6°
1
Windvlaag: -0.5 m/s
54%
05:00
11°
1013.6 hPa
21%
9.8°
1
Windvlaag: -0.3 m/s
60%
06:00
11°
1013.6 hPa
21%
9.9°
1
Windvlaag: -0.4 m/s
58%
07:00
11°
1013.9 hPa
21%
9.1°
1
Windvlaag: -0.4 m/s
55%
08:00
12°
1014.1 hPa
21%
9.3°
1
Windvlaag: -0.6 m/s
60%
09:00
14°
1014.3 hPa
21%
9.5°
1
Windvlaag: -0.6 m/s
58%
10:00
16°
1014.3 hPa
21%
9.9°
2
Windvlaag: -3.6 m/s
47%
11:00
18°
1014.1 hPa
21%
9.3°
2
Windvlaag: -3.4 m/s
43%
12:00
19°
1014.1 hPa
21%
8.9°
2
Windvlaag: -3.3 m/s
38%
13:00
20°
1013.9 hPa
21%
8.5°
2
Windvlaag: -2.9 m/s
28%
14:00
20°
1013.5 hPa
21%
8.9°
1
Windvlaag: -2.9 m/s
24%
15:00
21°
1013.0 hPa
21%
9.5°
1
Windvlaag: 2.4 m/s
33%
16:00
22°
1012.7 hPa
21%
10.2°
1
Windvlaag: 3.1 m/s
50%
17:00
22°
1012.5 hPa
21%
10.6°
2
Windvlaag: 4.5 m/s
23%
18:00
22°
1012.2 hPa
21%
11.6°
3
Windvlaag: 5.6 m/s
36%
19:00
20°
1012.4 hPa
21%
10.2°
4
Windvlaag: 4.7 m/s
49%
20:00
19°
1012.7 hPa
21%
10.2°
4
Windvlaag: 5.2 m/s
17%
21:00
17°
1012.1 hPa 5.3 mm
100%
10.7°
3
Windvlaag: 5.1 m/s
58%
22:00
15°
1012.5 hPa 5.3 mm
100%
10.3°
3
Windvlaag: 6.2 m/s
54%
23:00
14°
1012.6 hPa 5.3 mm
100%
9.7°
3
Windvlaag: 6.9 m/s
29%
 06:11     21:25    Daglengte: 15:14 Woensdag 04 Aug
00:00
13°
1013.0 hPa 5.3 mm
100%
9.7°
3
Windvlaag: 7 m/s
45%
Temp/Neerslag /Baro Onweer/Dauwpunt
    Temp Baro Neerslag Dauwpunt Wind Bewolking  
 06:07     21:30    Daglengte: 15:23 Vandaag
02:00
15°
1009.1 hPa   14.0°
3
24%
05:00
14°
1008.2 hPa   13.6°
3
51%
08:00
15°
1008.5 hPa   14.1°
4
69%
11:00
17°
1009.1 hPa 0.7 mm 15.2°
4
67%
14:00
19°
1009.2 hPa 1.9 mm 14.4°
4
54%
17:00
18°
1009.5 hPa 3.2 mm 11.8°
5
21%
20:00
17°
1010.1 hPa 1.1 mm 12.5°
3
71%
23:00
15°
1011.4 hPa   12.5°
2
70%
 06:08     21:28    Daglengte: 15:20 Morgen
02:00
14°
1011.7 hPa   12.4°
2
52%
05:00
13°
1011.6 hPa   11.9°
1
61%
08:00
14°
1012.6 hPa   12.2°
1
18%
11:00
17°
1013.6 hPa   10.0°
2
11%
14:00
19°
1013.8 hPa   9.5°
3
35%
17:00
20°
1013.1 hPa   10.4°
3
22%
20:00
18°
1013.1 hPa   7.6°
4
19%
23:00
13°
1014.2 hPa   9.9°
2
26%
 06:10     21:26    Daglengte: 15:16 Dinsdag 03 Aug
02:00
12°
1014.2 hPa   9.1°
1
26%
05:00
11°
1013.6 hPa   9.8°
1
60%
08:00
12°
1014.1 hPa   9.3°
1
60%
11:00
18°
1014.1 hPa   9.3°
2
43%
14:00
20°
1013.5 hPa   8.9°
1
24%
17:00
22°
1012.5 hPa   10.6°
2
23%
20:00
19°
1012.7 hPa   10.2°
4
17%
23:00
14°
1012.6 hPa 16.0 mm 9.7°
3
29%
 06:11     21:25    Daglengte: 15:14 Woensdag 04 Aug
02:00
12°
1013.1 hPa 16.0 mm 9.9°
2
65%
05:00
14°
1012.4 hPa 7.9 mm 11.7°
2
1%
08:00
13°
1013.0 hPa 8.4 mm 12.4°
2
1%
11:00
13°
1013.9 hPa 11.2 mm 12.9°
2
1%
14:00
14°
1014.2 hPa 14.3 mm 13.4°
3
1%
17:00
15°
1014.7 hPa 15.0 mm 13.7°
2
1%
20:00
15°
1014.7 hPa 15.2 mm 13.6°
1
1%
23:00
13°
1015.1 hPa 15.2 mm 11.9°
1
1%
 06:13     21:23    Daglengte: 15:10 Donderdag 05 Aug
02:00
12°
1014.5 hPa 15.2 mm 11.4°
1
1%
05:00
11°
1013.0 hPa 15.2 mm 10.6°
2
0%
08:00
13°
1011.9 hPa 15.2 mm 12.3°
3
0%
11:00
17°
1010.8 hPa 15.2 mm 12.9°
4
1%
14:00
18°
1009.0 hPa 15.2 mm 11.0°
5
1%
17:00
18°
1007.0 hPa 15.5 mm 12.9°
6
1%
20:00
14°
1005.4 hPa 16.0 mm 12.2°
5
1%
23:00
13°
1003.9 hPa 16.7 mm 12.5°
6
1%
 06:14     21:21    Daglengte: 15:07 Vrijdag 06 Aug
02:00
14°
1003.0 hPa 16.8 mm 13.3°
4
1%
05:00
14°
1001.4 hPa 17.9 mm 13.9°
5
1%
08:00
14°
1000.5 hPa 18.5 mm 13.7°
6
1%
11:00
15°
999.7 hPa 21.3 mm 14.2°
7
1%
14:00
17°
999.9 hPa 23.3 mm 15.7°
7
1%
17:00
19°
1000.8 hPa 25.0 mm 15.5°
7
1%
20:00
18°
1002.4 hPa 25.9 mm 14.9°
6
1%
23:00
16°
1004.4 hPa 26.5 mm 14.5°
7
0%
 06:16     21:19    Daglengte: 15:03 Zaterdag 07 Aug
02:00
15°
1005.5 hPa 26.6 mm 14.1°
5
0%
05:00
14°
1006.7 hPa 26.7 mm 13.4°
5
0%
08:00
15°
1007.4 hPa 26.7 mm 13.9°
5
1%
11:00
17°
1008.4 hPa 27.0 mm 13.8°
6
1%
14:00
21°
1008.3 hPa 27.2 mm 11.6°
6
1%
17:00
21°
1008.3 hPa 27.2 mm 11.8°
4
1%
20:00
19°
1008.1 hPa 27.2 mm 13.4°
3
1%
23:00
15°
1008.6 hPa   14.0°
1
1%
 06:17     21:17    Daglengte: 15:00 Zondag 08 Aug
02:00
15°
1007.9 hPa 58.3 mm 13.5°
3
1%
08:00
16°
1006.6 hPa 61.4 mm 15.6°
5
1%
14:00
21°
1008.1 hPa 65.7 mm 12.9°
8
1%
20:00
16°
1008.7 hPa 69.6 mm 13.5°
9
0%
 06:19     21:15    Daglengte: 14:56 Maandag 09 Aug
02:00
16°
1012.0 hPa 73.4 mm 12.6°
9
1%
08:00
16°
1014.9 hPa 75.7 mm 13.5°
7
1%
14:00
17°
1018.6 hPa 80.4 mm 14.1°
7
1%
20:00
17°
1020.9 hPa 81.7 mm 12.0°
5
1%
 06:21     21:14    Daglengte: 14:53 Dinsdag 10 Aug
02:00
14°
1022.1 hPa 81.8 mm 12.8°
4
1%
08:00
16°
1022.4 hPa 81.9 mm 14.2°
3
1%
14:00
20°
1023.0 hPa 83.9 mm 16.5°
5
1%
20:00
19°
1019.7 hPa 0.5 mm 12.7°
3
34%
 06:22     21:12    Daglengte: 14:50 Woensdag 11 Aug
02:00
15°
1020.6 hPa 0.2 mm 12.2°
2
38%
08:00
16°
1020.5 hPa   12.6°
1
42%
14:00
22°
1020.5 hPa 0.3 mm 12.0°
3
49%
20:00
20°
1020.2 hPa 0.4 mm 12.6°
2
43%
 06:24     21:10    Daglengte: 14:46 Donderdag 12 Aug
02:00
15°
1020.6 hPa 0.1 mm 11.8°
0
36%
08:00
16°
1020.2 hPa 0.1 mm 12.3°
0
52%
14:00
23°
1020.0 hPa 0.2 mm 12.8°
1
55%
20:00
20°
1019.6 hPa 0.2 mm 13.4°
2
52%
 06:25     21:08    Daglengte: 14:43 Vrijdag 13 Aug
02:00
16°
1020.0 hPa 0.1 mm 12.7°
0
51%
08:00
17°
1019.8 hPa   13.2°
1
60%
14:00
23°
1019.7 hPa 0.4 mm 13.3°
2
54%
20:00
21°
1019.1 hPa 0.1 mm 13.3°
1
45%
 06:27     21:06    Daglengte: 14:39 Zaterdag 14 Aug
02:00
17°
1019.4 hPa 0.2 mm 12.7°
1
53%
08:00
16°
1019.1 hPa 0.3 mm 13.0°
1
55%
14:00
22°
1018.9 hPa 0.7 mm 13.3°
2
62%
20:00
20°
1018.3 hPa 0.3 mm 13.5°
2
46%
 06:29     21:04    Daglengte: 14:35 Zondag 15 Aug
02:00
16°
1018.5 hPa 0.1 mm 12.6°
1
41%
08:00
16°
1018.0 hPa 0.2 mm 13.3°
2
51%
14:00
22°
1017.9 hPa 0.6 mm 13.9°
3
55%
20:00
20°
1017.6 hPa 0.6 mm 13.6°
3
48%
  CAPE Lifted Index Hail Supercell Tornado SRH 3km CL BTM PRES CL TOP PRES Swiss DWD icon SMHI TS
 06:07     21:30    Daglengte: 15:23 Vandaag
01:00 233 J/kg -0.8 K 0 % 0 % 0 % 0 m²/s² 0 0 -0.02 2
02:00 212 J/kg -1.0 K 0 % 0 % 0 % 0 m²/s² 0 0 -0.07 3
03:00 70 J/kg -0.7 K 0 % 0 % 0 % 0 m²/s² 0 0 0.02 3
04:00 0 J/kg -0.4 K 0 % 0 % 0 % 0 m²/s² 0 0 0.14 3
05:00 0 J/kg -0.6 K 0 % 0 % 0 % 0 m²/s² 0 0 0.03 3
06:00 0 J/kg -0.7 K 0 % 0 % 0 % 0 m²/s² 0 0 -0.07 3
07:00 0 J/kg -0.4 K 0 % 0 % 0 % 0 m²/s² 0 0 0.32 3
08:00 0 J/kg -0.2 K 0 % 0 % 0 % 0 m²/s² 0 0 0.85 3
09:00 108 J/kg -0.7 K 0 % 0 % 0 % 0 m²/s² 0 0 0.35 3
10:00 207 J/kg -0.8 K 0 % 0 % 0 % 0 m²/s² 0 0 0.16 80
11:00 273 J/kg -0.9 K 0 % 0 % 0 % 0 m²/s² 0 0 -0.12 80
12:00 431 J/kg -2.1 K 0 % 0 % 0 % 0 m²/s² 0 0 -1.38 80
13:00 874 J/kg -3.4 K 0 % 0 % 0 % 0 m²/s² 0 0 -2.77 80
14:00 530 J/kg -1.8 K 0 % 0 % 0 % 0 m²/s² 0 0 -1.32 80
15:00 683 J/kg -2.5 K 0 % 0 % 0 % 0 m²/s² 0 0 -1.69 80
16:00 479 J/kg -1.7 K 0 % 0 % 0 % 0 m²/s² 0 0 -0.62 80
17:00 414 J/kg -1.5 K 0 % 0 % 0 % 0 m²/s² 0 0 0 80
18:00 291 J/kg -0.8 K 0 % 0 % 0 % 0 m²/s² 0 0 1.15 80
19:00 272 J/kg -0.7 K 0 % 0 % 0 % 0 m²/s² 0 0 1.13 3
20:00 161 J/kg 0.0 K 0 % 0 % 0 % 0 m²/s² 0 0 1.38 3
21:00 1 J/kg 1.6 K 0 % 0 % 0 % 0 m²/s² 0 0 2.68 3
22:00 0 J/kg 2.2 K 0 % 0 % 0 % 0 m²/s² 0 0 3.13 3
23:00 0 J/kg 2.7 K 0 % 0 % 0 % 0 m²/s² 0 0 4.17 3
 06:08     21:28    Daglengte: 15:20 Morgen
00:00 8 J/kg 3.2 K 0 % 0 % 0 % 0 m²/s² 0 0 4.52 3
01:00 0 J/kg 3.5 K 0 % 0 % 0 % 0 m²/s² 0 0 5.6 3
02:00 3 J/kg 4.1 K 0 % 0 % 0 % 0 m²/s² 0 0 7.85 3
03:00 0 J/kg 4.5 K 0 % 0 % 0 % 0 m²/s² 0 0 8.67 3
04:00 0 J/kg 4.6 K 0 % 0 % 0 % 0 m²/s² 0 0 8.77 3
05:00 0 J/kg 4.8 K 0 % 0 % 0 % 0 m²/s² 0 0 6.75 3
06:00 0 J/kg 5.1 K 0 % 0 % 0 % 0 m²/s² 0 0 5.91 2
07:00 0 J/kg 5.0 K 0 % 0 % 0 % 0 m²/s² 0 0 5.12 2
08:00 0 J/kg 5.0 K 0 % 0 % 0 % 0 m²/s² 0 0 5.12 1
09:00 5 J/kg 4.6 K 0 % 0 % 0 % 0 m²/s² 0 0 5.02 1
10:00 8 J/kg 4.3 K 0 % 0 % 0 % 0 m²/s² 0 0 4.6 2
11:00 23 J/kg 3.9 K 0 % 0 % 0 % 0 m²/s² 0 0 4.38 2
12:00 9 J/kg 3.9 K 0 % 0 % 0 % 0 m²/s² 0 0 4.32 2
13:00 22 J/kg 3.7 K 0 % 0 % 0 % 0 m²/s² 0 0 4.51 2
14:00 30 J/kg 3.5 K 0 % 0 % 0 % 0 m²/s² 0 0 6.29 2
15:00 46 J/kg 3.0 K 0 % 0 % 0 % 0 m²/s² 0 0 6.21 3
16:00 50 J/kg 2.8 K 0 % 0 % 0 % 0 m²/s² 0 0 6.1 3
17:00 18 J/kg 2.9 K 0 % 0 % 0 % 0 m²/s² 0 0 6.2 2
18:00 0 J/kg 3.5 K 0 % 0 % 0 % 0 m²/s² 0 0 7.16 2
19:00 0 J/kg 4.8 K 0 % 0 % 0 % 0 m²/s² 0 0 8.67 2
20:00 0 J/kg 6.1 K 0 % 0 % 0 % 0 m²/s² 0 0 10.18 1
21:00 0 J/kg 5.9 K 0 % 0 % 0 % 0 m²/s² 0 0 10.28 3
22:00 0 J/kg 6.0 K 0 % 0 % 0 % 0 m²/s² 0 0 10.86 3
23:00 0 J/kg 6.1 K 0 % 0 % 0 % 0 m²/s² 0 0 10.72 3
 06:10     21:26    Daglengte: 15:16 Dinsdag 03 Aug
00:00 0 J/kg 6.1 K 0 % 0 % 0 % 0 m²/s² 0 0 10.84 0
01:00 0 J/kg 5.6 K 0 % 0 % 0 % 0 m²/s² 0 0 10.46 1
02:00 0 J/kg 5.6 K 0 % 0 % 0 % 0 m²/s² 0 0 10.61 0
03:00 0 J/kg 5.4 K 0 % 0 % 0 % 0 m²/s² 0 0 10.14 0
04:00 0 J/kg 5.2 K 0 % 0 % 0 % 0 m²/s² 0 0 9.94 0
05:00 0 J/kg 5.3 K 0 % 0 % 0 % 0 m²/s² 0 0 9.83 2
06:00 0 J/kg 4.9 K 0 % 0 % 0 % 0 m²/s² 0 0 8.86 0
07:00 0 J/kg 4.7 K 0 % 0 % 0 % 0 m²/s² 0 0 8.75 0
08:00 0 J/kg 4.6 K 0 % 0 % 0 % 0 m²/s² 0 0 8.47 0
09:00 0 J/kg 4.6 K 0 % 0 % 0 % 0 m²/s² 0 0 8.26 0
10:00 0 J/kg 4.7 K 0 % 0 % 0 % 0 m²/s² 0 0 8.45 0
11:00 0 J/kg 5.0 K 0 % 0 % 0 % 0 m²/s² 0 0 8.39 1
12:00 2 J/kg 5.0 K 0 % 0 % 0 % 0 m²/s² 0 0 7.97 2
13:00 4 J/kg 4.8 K 0 % 0 % 0 % 0 m²/s² 0 0 7.53 2
14:00 9 J/kg 4.2 K 0 % 0 % 0 % 0 m²/s² 0 0 6.93 2
15:00 28 J/kg 3.6 K 0 % 0 % 0 % 0 m²/s² 0 0 6.33 1
16:00 34 J/kg 3.0 K 0 % 0 % 0 % 0 m²/s² 0 0 5.82 1
17:00 37 J/kg 2.7 K 0 % 0 % 0 % 0 m²/s² 0 0 5.67 2
18:00 28 J/kg 2.3 K 0 % 0 % 0 % 0 m²/s² 0 0 5.54 2
19:00 29 J/kg 3.1 K 0 % 0 % 0 % 0 m²/s² 0 0 6.7 2
20:00 27 J/kg 3.4 K 0 % 0 % 0 % 0 m²/s² 0 0 7.6 2
21:00 0 J/kg 3.8 K 0 % 0 % 0 % 0 m²/s² 0 0 8.45
22:00 0 J/kg 4.9 K 0 % 0 % 0 % 0 m²/s² 0 0 9.67
23:00 0 J/kg 5.2 K 0 % 0 % 0 % 0 m²/s² 0 0 10.21
 06:11     21:25    Daglengte: 15:14 Woensdag 04 Aug
00:00 0 J/kg 5.6 K 0 % 0 % 0 % 0 m²/s² 0 0 10.46
Temp Baro Wind Neerslag
  EWN Forecast EWN WRFDA DWD ICON FMI HIRLAM MET Norway GFS
 06:07     21:30    Daglengte: 15:23 Vandaag
02:00 14.8° 1009.1 hPa 3.3 m/s 0.0 mm 13.1° 1008.6 hPa 2.9 m/s 0.8 mm 15.3° 1009.4 hPa 2.9 m/s -0.7 mm 15.0° 1008.6 hPa 3.4 m/s 0.0 mm 13.4° 1009.1 hPa 3.1 m/s
05:00 14.1° 1008.2 hPa 3.4 m/s 0.0 mm 11.4° 1007.5 hPa 2.8 m/s 0.8 mm 14.8° 1008.5 hPa 3.4 m/s 0.0 mm 14.3° 1007.4 hPa 3.0 m/s 0.0 mm 12.6° 1008.4 hPa 3.2 m/s
08:00 14.7° 1008.5 hPa 3.9 m/s 0.0 mm 14.2° 1007.0 hPa 3.2 m/s 0.8 mm 15.4° 1008.6 hPa 4.0 m/s 0.0 mm 14.5° 1008.3 hPa 3.4 m/s 0.0 mm 14.4° 1008.6 hPa 3.6 m/s
11:00 16.8° 1009.1 hPa 3.6 m/s 0.7 mm 16.5° 1007.8 hPa 4.0 m/s 1.1 mm 17.6° 1009.3 hPa 3.6 m/s 0.8 mm 17.0° 1008.3 hPa 3.1 m/s 0.0 mm 19.3° 1008.9 hPa 4.4 m/s
14:00 18.6° 1009.2 hPa 4.4 m/s 1.9 mm 17.9° 1007.7 hPa 4.5 m/s 5.5 mm 18.7° 1009.8 hPa 4.2 m/s 0.7 mm 18.8° 1008.6 hPa 4.8 m/s 0.0 mm 21.0° 1009.0 hPa 4.8 m/s
17:00 18.4° 1009.5 hPa 5.3 m/s 3.2 mm 20.1° 1007.8 hPa 5.6 m/s 11.5 mm 18.0° 1010.0 hPa 4.0 m/s 1.0 mm 19.3° 1008.6 hPa 5.5 m/s 0.0 mm 20.3° 1009.8 hPa 5.0 m/s
20:00 17.0° 1010.1 hPa 3.4 m/s 1.1 mm 18.5° 1008.6 hPa 4.2 m/s 13.2 mm 17.4° 1010.3 hPa 3.1 m/s 0.4 mm 16.9° 1009.5 hPa 3.3 m/s 0.0 mm 17.2° 1010.8 hPa 4.3 m/s
23:00 15.2° 1011.4 hPa 1.9 m/s 0.0 mm 16.1° 1010.1 hPa 2.5 m/s 13.3 mm 15.5° 1011.3 hPa 1.3 m/s 0.0 mm 15.1° 1011.4 hPa 1.9 m/s 0.0 mm 13.5° 1012.4 hPa 2.3 m/s
 06:08     21:28    Daglengte: 15:20 Morgen
02:00 14.2° 1011.7 hPa 1.7 m/s 0.0 mm 12.0° 1010.5 hPa 2.4 m/s 13.3 mm 15.1° 1011.7 hPa 1.1 m/s 0.0 mm 14.5° 1011.4 hPa 1.7 m/s 0.0 mm 12.4° 1013.0 hPa 1.6 m/s
05:00 12.9° 1011.6 hPa 1.4 m/s 0.0 mm 10.8° 1010.5 hPa 0.4 m/s 13.3 mm 14.8° 1011.6 hPa 0.9 m/s 0.0 mm 12.9° 1011.6 hPa 1.9 m/s 0.0 mm 12.8° 1013.3 hPa 1.1 m/s
08:00 13.8° 1012.6 hPa 1.2 m/s 0.0 mm 13.1° 1011.6 hPa 0.9 m/s 13.9 mm 14.6° 1012.6 hPa 1.2 m/s 0.0 mm 13.9° 1012.6 hPa 1.5 m/s 0.0 mm 14.3° 1014.1 hPa 1.1 m/s
11:00 17.1° 1013.6 hPa 1.9 m/s 0.0 mm 14.7° 1012.1 hPa 1.3 m/s 15.9 mm 17.9° 1013.1 hPa 1.8 m/s 0.0 mm 17.4° 1013.8 hPa 3.9 m/s 0.0 mm 17.2° 1014.5 hPa 2.0 m/s
14:00 18.8° 1013.8 hPa 2.8 m/s 0.0 mm 18.8° 1012.0 hPa 2.0 m/s 15.9 mm 20.1° 1013.1 hPa 2.7 m/s 0.0 mm 18.8° 1014.5 hPa 4.1 m/s 0.0 mm 19.2° 1014.1 hPa 3.5 m/s
17:00 19.7° 1013.1 hPa 3.4 m/s 0.0 mm 19.9° 1011.7 hPa 3.5 m/s 16.0 mm 20.3° 1013.1 hPa 2.9 m/s 0.0 mm 19.4° 1013.7 hPa 2.8 m/s
20:00 17.9° 1013.1 hPa 3.7 m/s 0.0 mm 18.0° 1012.0 hPa 3.8 m/s 16.0 mm 18.3° 1013.1 hPa 2.8 m/s 0.0 mm 17.4° 1013.6 hPa 3.1 m/s
23:00 13.4° 1014.2 hPa 1.8 m/s 0.0 mm 12.0° 1012.7 hPa 2.4 m/s 16.0 mm 14.7° 1014.2 hPa 1.8 m/s 0.0 mm 14.7° 1014.0 hPa 2.5 m/s
 06:10     21:26    Daglengte: 15:16 Dinsdag 03 Aug
02:00 11.7° 1014.2 hPa 1.5 m/s 0.0 mm 10.5° 1012.7 hPa 1.6 m/s 16.0 mm 12.8° 1014.3 hPa 1.3 m/s 0.0 mm 13.7° 1013.5 hPa 2.6 m/s
05:00 11.0° 1013.6 hPa 1.2 m/s 0.0 mm 9.8° 1012.0 hPa 1.9 m/s 16.0 mm 11.6° 1013.8 hPa 1.1 m/s 0.0 mm 13.5° 1012.7 hPa 2.2 m/s
08:00 12.5° 1014.1 hPa 1.5 m/s 0.0 mm 13.3° 1012.5 hPa 1.8 m/s 16.0 mm 12.6° 1014.3 hPa 1.2 m/s 0.0 mm 14.1° 1012.7 hPa 2.6 m/s
11:00 17.6° 1014.1 hPa 2.3 m/s 0.0 mm 17.6° 1012.1 hPa 2.4 m/s 16.0 mm 18.0° 1014.4 hPa 1.5 m/s 0.0 mm 14.7° 1012.8 hPa 2.4 m/s
14:00 20.2° 1013.5 hPa 1.4 m/s 0.0 mm 20.3° 1011.2 hPa 2.4 m/s 16.0 mm 20.7° 1013.7 hPa 1.2 m/s 0.0 mm 15.2° 1012.7 hPa 2.4 m/s
17:00 21.8° 1012.5 hPa 1.9 m/s 0.0 mm 21.2° 1011.1 hPa 4.4 m/s 16.0 mm 21.9° 1012.9 hPa 1.3 m/s 0.0 mm 16.1° 1012.8 hPa 2.0 m/s
20:00 19.5° 1012.7 hPa 3.8 m/s 0.0 mm 19.5° 1011.6 hPa 4.9 m/s 16.0 mm 19.5° 1013.0 hPa 3.5 m/s 0.0 mm 16.9° 1013.1 hPa 2.2 m/s
23:00 14.0° 1012.6 hPa 3.1 m/s 16.0 mm 14.0° 1012.6 hPa 3.1 m/s 16.0 mm 13.3° 1013.6 hPa 2.2 m/s
 06:11     21:25    Daglengte: 15:14 Woensdag 04 Aug
02:00 11.9° 1013.1 hPa 2.4 m/s 16.0 mm 11.9° 1013.1 hPa 2.4 m/s 16.0 mm 13.8° 1013.5 hPa 2.2 m/s
05:00 13.7° 1012.4 hPa 1.9 m/s 7.9 mm 13.7° 1012.4 hPa 1.9 m/s 7.9 mm
08:00 13.4° 1013.0 hPa 2.0 m/s 8.4 mm 13.4° 1013.0 hPa 2.0 m/s 8.4 mm
11:00 13.4° 1013.9 hPa 2.4 m/s 11.2 mm 13.4° 1013.9 hPa 2.4 m/s 11.2 mm
14:00 14.4° 1014.2 hPa 2.9 m/s 14.3 mm 14.4° 1014.2 hPa 2.9 m/s 14.3 mm
17:00 15.3° 1014.7 hPa 1.7 m/s 15.0 mm 15.3° 1014.7 hPa 1.7 m/s 15.0 mm
20:00 15.4° 1014.7 hPa 0.7 m/s 15.2 mm 15.4° 1014.7 hPa 0.7 m/s 15.2 mm
23:00 13.2° 1015.1 hPa 0.5 m/s 15.2 mm 13.2° 1015.1 hPa 0.5 m/s 15.2 mm
 06:13     21:23    Daglengte: 15:10 Donderdag 05 Aug
02:00 12.2° 1014.5 hPa 1.2 m/s 15.2 mm 12.2° 1014.5 hPa 1.2 m/s 15.2 mm
05:00 11.2° 1013.0 hPa 1.9 m/s 15.2 mm 11.2° 1013.0 hPa 1.9 m/s 15.2 mm
08:00 13.1° 1011.9 hPa 2.6 m/s 15.2 mm 13.1° 1011.9 hPa 2.6 m/s 15.2 mm
11:00 16.8° 1010.8 hPa 3.7 m/s 15.2 mm 16.8° 1010.8 hPa 3.7 m/s 15.2 mm
14:00 18.1° 1009.0 hPa 5.0 m/s 15.2 mm 18.1° 1009.0 hPa 5.0 m/s 15.2 mm
17:00 17.9° 1007.0 hPa 5.9 m/s 15.5 mm 17.9° 1007.0 hPa 5.9 m/s 15.5 mm
20:00 14.3° 1005.4 hPa 5.5 m/s 16.0 mm 14.3° 1005.4 hPa 5.5 m/s 16.0 mm
23:00 13.5° 1003.9 hPa 5.6 m/s 16.7 mm 13.5° 1003.9 hPa 5.6 m/s 16.7 mm
 06:14     21:21    Daglengte: 15:07 Vrijdag 06 Aug
02:00 14.0° 1003.0 hPa 4.2 m/s 16.8 mm 14.0° 1003.0 hPa 4.2 m/s 16.8 mm
05:00 14.2° 1001.4 hPa 4.5 m/s 17.9 mm 14.2° 1001.4 hPa 4.5 m/s 17.9 mm
08:00 14.4° 1000.5 hPa 5.6 m/s 18.5 mm 14.4° 1000.5 hPa 5.6 m/s 18.5 mm
11:00 14.8° 999.7 hPa 6.6 m/s 21.3 mm 14.9° 999.7 hPa 6.6 m/s 21.3 mm
14:00 17.5° 999.9 hPa 6.6 m/s 23.3 mm 17.5° 999.9 hPa 6.6 m/s 23.3 mm
17:00 19.2° 1000.8 hPa 7.1 m/s 25.0 mm 19.2° 1000.8 hPa 7.1 m/s 25.0 mm
20:00 17.6° 1002.4 hPa 6.1 m/s 25.9 mm 17.6° 1002.4 hPa 6.1 m/s 25.9 mm
23:00 15.7° 1004.4 hPa 6.9 m/s 26.5 mm 15.7° 1004.4 hPa 6.9 m/s 26.5 mm
 06:16     21:19    Daglengte: 15:03 Zaterdag 07 Aug
02:00 15.1° 1005.5 hPa 5.5 m/s 26.6 mm 15.1° 1005.5 hPa 5.5 m/s 26.6 mm
05:00 13.9° 1006.7 hPa 5.1 m/s 26.7 mm 13.9° 1006.7 hPa 5.1 m/s 26.7 mm
08:00 14.8° 1007.4 hPa 5.2 m/s 26.7 mm 14.8° 1007.4 hPa 5.2 m/s 26.7 mm
11:00 17.5° 1008.4 hPa 6.4 m/s 27.0 mm 17.5° 1008.4 hPa 6.4 m/s 27.0 mm
14:00 20.6° 1008.3 hPa 5.7 m/s 27.2 mm 20.6° 1008.3 hPa 5.7 m/s 27.2 mm
17:00 20.8° 1008.3 hPa 4.0 m/s 27.2 mm 20.8° 1008.3 hPa 4.0 m/s 27.2 mm
20:00 19.3° 1008.1 hPa 2.5 m/s 27.2 mm 19.3° 1008.1 hPa 2.5 m/s 27.2 mm
23:00 15.5° 1008.6 hPa 1.5 m/s 29.2 mm 15.5° 1008.6 hPa 1.5 m/s 29.2 mm
 06:17     21:17    Daglengte: 15:00 Zondag 08 Aug
02:00 15.3° 1007.9 hPa 3.1 m/s 29.2 mm 15.3° 1007.9 hPa 3.1 m/s 29.2 mm
08:00 15.9° 1006.6 hPa 4.6 m/s 32.0 mm 15.9° 1006.6 hPa 4.6 m/s 32.0 mm
14:00 21.4° 1008.1 hPa 7.5 m/s 32.9 mm 21.4° 1008.1 hPa 7.5 m/s 32.9 mm
20:00 16.2° 1008.7 hPa 8.8 m/s 36.0 mm 16.2° 1008.7 hPa 8.8 m/s 36.0 mm
 06:19     21:15    Daglengte: 14:56 Maandag 09 Aug
02:00 15.8° 1012.0 hPa 9.2 m/s 37.0 mm 15.8° 1012.0 hPa 9.2 m/s 37.0 mm
08:00 16.0° 1014.9 hPa 7.0 m/s 38.0 mm 16.0° 1014.9 hPa 7.0 m/s 38.0 mm
14:00 17.0° 1018.6 hPa 7.0 m/s 40.7 mm 17.0° 1018.6 hPa 7.0 m/s 40.7 mm
20:00 17.5° 1020.9 hPa 5.4 m/s 40.9 mm 17.5° 1020.9 hPa 5.4 m/s 40.9 mm
 06:21     21:14    Daglengte: 14:53 Dinsdag 10 Aug
02:00 14.4° 1022.1 hPa 4.1 m/s 41.0 mm 14.4° 1022.1 hPa 4.1 m/s 41.0 mm
08:00 16.0° 1022.4 hPa 3.3 m/s 41.0 mm 16.0° 1022.4 hPa 3.3 m/s 41.0 mm
14:00 20.2° 1023.0 hPa 5.5 m/s 42.5 mm 20.2° 1023.0 hPa 5.5 m/s 42.5 mm
20:00 19.1° 1019.7 hPa 3.3 m/s 0.5 mm
 06:22     21:12    Daglengte: 14:50 Woensdag 11 Aug
02:00 15.0° 1020.6 hPa 1.6 m/s 0.2 mm
08:00 15.5° 1020.5 hPa 1.4 m/s 0.0 mm
14:00 21.6° 1020.5 hPa 2.6 m/s 0.3 mm
20:00 19.5° 1020.2 hPa 2.3 m/s 0.4 mm
 06:24     21:10    Daglengte: 14:46 Donderdag 12 Aug
02:00 15.2° 1020.6 hPa 0.2 m/s 0.1 mm
08:00 15.6° 1020.2 hPa 0.5 m/s 0.1 mm
14:00 22.5° 1020.0 hPa 1.2 m/s 0.2 mm
20:00 20.4° 1019.6 hPa 2.1 m/s 0.2 mm
 06:25     21:08    Daglengte: 14:43 Vrijdag 13 Aug
02:00 16.3° 1020.0 hPa 0.5 m/s 0.1 mm
08:00 16.6° 1019.8 hPa 0.9 m/s 0.0 mm
14:00 22.7° 1019.7 hPa 2.2 m/s 0.4 mm
20:00 20.7° 1019.1 hPa 1.4 m/s 0.1 mm
 06:27     21:06    Daglengte: 14:39 Zaterdag 14 Aug
02:00 16.7° 1019.4 hPa 0.9 m/s 0.2 mm
08:00 16.5° 1019.1 hPa 1.1 m/s 0.3 mm
14:00 22.4° 1018.9 hPa 1.9 m/s 0.7 mm
20:00 20.2° 1018.3 hPa 1.9 m/s 0.3 mm
 06:29     21:04    Daglengte: 14:35 Zondag 15 Aug
02:00 16.0° 1018.5 hPa 0.7 m/s 0.1 mm
08:00 16.3° 1018.0 hPa 1.5 m/s 0.2 mm
14:00 21.9° 1017.9 hPa 2.9 m/s 0.6 mm
20:00 19.5° 1017.6 hPa 2.6 m/s 0.6 mm
FMI Hirlam - 7.5 km EWN WRFDA - 12 km DWD ICON - 7 km GFS - 25 km Basiskaart






























































Updatetijd (Europe/Amsterdam) Resolutie Lengte Stap
FMI Hirlam 19:00, 01:00, 07:00, 13:00 7.5 km 49h 1h
EWN WRFDA 22:15, 04:15, 10:15, 16:15 12 km 73h 1h
DWD ICON 23:45, 05:45, 11:45, 17:45 7 km 75h 1h
GFS 20:15, 02:15, 08:15, 14:15 25 km 237h 3h
30+ mm
25-30 mm
20-25 mm
15-20 mm
10-15 mm
6-10 mm
4-6 mm
2-4 mm
1-2 mm
0.5-1 mm
0.2-0.5 mm
0.1-0.2 mm
30+ mm
25-30 mm
20-25 mm
15-20 mm
10-15 mm
6-10 mm
4-6 mm
2-4 mm
1-2 mm
0.5-1 mm
0.2-0.5 mm
0.1-0.2 mm
Sneeuwval
Natte sneeuw
Hagel
Vorst
30+ mm
25-30 mm
20-25 mm
15-20 mm
10-15 mm
6-10 mm
4-6 mm
2-4 mm
1-2 mm
0.5-1 mm
0.2-0.5 mm
0.1-0.2 mm
Sneeuwval
Natte sneeuw
Hagel
Vorst
Onweer
50 mm
40 mm
30 mm
26 mm
22 mm
18 mm
14 mm
10 mm
9 mm
8 mm
7 mm
6 mm
5 mm
4.5 mm
4 mm
3.5 mm
3 mm
2.5 mm
2 mm
1.5 mm
1 mm
0.8 mm
0.6 mm
0.4 mm
0.2 mm
0.05 mm
35°
30°
25°
20°
15°
10°
-5°
-10°
-15°
-20°
-25°
-30°
-35°
33> m/s
29 m/s
25 m/s
21 m/s
17 m/s
14 m/s
11 m/s
8 m/s
5 m/s
3 m/s
0 m/s
2600 J/kg
2400 J/kg
2200 J/kg
2000 J/kg
1800 J/kg
1600 J/kg
1400 J/kg
1200 J/kg
1000 J/kg
800 J/kg
600 J/kg
400 J/kg
200 J/kg
70 dBZ
65 dBZ
60 dBZ
55 dBZ
50 dBZ
45 dBZ
40 dBZ
35 dBZ
30 dBZ
25 dBZ
20 dBZ
15 dBZ
10 dBZ
5 dBZ
-1 K
-2 K
-3 K
-4 K
-5 K
-6 K
-7 K
-8 K
-9 K
950 m²/s²
900 m²/s²
850 m²/s²
800 m²/s²
750 m²/s²
700 m²/s²
650 m²/s²
600 m²/s²
550 m²/s²
500 m²/s²
450 m²/s²
400 m²/s²
350 m²/s²
300 m²/s²
250 m²/s²
200 m²/s²
150 m²/s²
100 m²/s²
46 m/s
44 m/s
42 m/s
40 m/s
38 m/s
36 m/s
34 m/s
32 m/s
30 m/s
28 m/s
26 m/s
24 m/s
22 m/s
20 m/s
16 m/s
12 m/s
8 m/s
4 m/s
30 m/s
28 m/s
26 m/s
24 m/s
22 m/s
20 m/s
18 m/s
16 m/s
14 m/s
12 m/s
10 m/s
8 m/s
6 m/s
4 m/s
2 m/s
3.0
2.8
2.6
2.4
2.2
2.0
1.8
1.6
1.4
1.2
1.0
0.8
0.6
0.4
0.2
15
14
13
12
11
10
9
8
7
6
5
4
3
2
1
90%
80%
70%
60%
50%
40%
30%
20%
10%
42
40
38
36
34
32
30
28
26
24
22
20
18
16
14
12
90+ cm
80-90 cm
70-80 cm
60-70 cm
50-60 cm
40-50 cm
30-40 cm
20-30 cm
10-20 cm
1-10 cm
Sneeuwval
Natte sneeuw
Regen
>120 mm
115 mm
110 mm
105 mm
100 mm
95 mm
90 mm
85 mm
80 mm
75 mm
70 mm
65 mm
60 mm
55 mm
50 mm</